Regional Weather Roundup
Issued by NWS

Home | Current Version | Previous Version | Graphics & Text | Print | Product List | Glossary On
Versions: 1 2 3 4 5 6 7 8 9 10 11 12 13 14 15 16 17 18 19 20 21 22 23 24 25 26 27
000
ASUS45 KSLC 250310
RWRUT

UTAH REGIONAL WEATHER ROUNDUP
NATIONAL WEATHER SERVICE SALT LAKE CITY UT
900 PM MDT SAT JUN 24 2017

UTZ001>011-023>025-250400-

NORTHERN UTAH

CITY           SKY/WX    TMP DP  RH WIND       PRES   REMARKS
BRIGHAM CITY   CLEAR     79  44  28 CALM      30.15R
HILL AFB       NOT AVBL
LOGAN          CLEAR     76  51  41 NW3       30.15S
OGDEN          CLEAR     80  33  18 CALM      30.14S
SALT LAKE CITY CLEAR     82  31  15 N7        30.12S
TOOELE VALLEY  CLEAR     75  28  17 CALM      30.15S
WENDOVER         N/A     84  28  13 NE5       30.13R
HEBER CITY     CLEAR     70  32  24 S3        30.21R
WEST JORDAN    CLEAR     77  41  27 W5        30.16F

$$

UTZ011>015-024>027-250400-

CENTRAL/NORTHEAST UTAH

CITY           SKY/WX    TMP DP  RH WIND       PRES   REMARKS
PROVO AIRPORT  CLEAR     76  49  38 NW9       30.14S
MOAB/CANYONLAN CLEAR     89  13   6 E14       30.02S
DELTA          CLEAR     81  21  11 N9        30.13S
PRICE          CLEAR     79  16   9 NW16G22   30.20R
RICHFIELD      CLEAR     81  23  12 NW9G15    30.17R
VERNAL         CLEAR     76  36  23 N7        30.16R

$$

UTZ013>016-019>022-027-250400-

SOUTHERN UTAH

CITY           SKY/WX    TMP DP  RH WIND       PRES   REMARKS
BRYCE CANYON   CLOUDY    73  10   9 W10       30.32S
CEDAR CITY     CLEAR     80  22  11 N9        30.15R
MILFORD        CLEAR     83  19   9 N10       30.12R
ST GEORGE      CLEAR    101  23   6 NE22G29   29.84R HX  94
HANKSVILLE     CLEAR     88  18   7 E5        30.04R
KANAB          CLEAR     88  25  10 NW8G14    30.08R
BLANDING       CLEAR     74  25  16 N5        30.21S

$$

REGIONAL REPORTS     COLORADO/ARIZONA

CITY           SKY/WX    TMP DP  RH WIND       PRES   REMARKS
CRAIG, CO      CLEAR     63  41  44 CALM      30.27S
GRAND JUNCTION CLEAR     84  21  10 NE15      30.09R
RIFLE, CO      CLEAR     76  26  15 N3        30.20R
MONTROSE, CO   CLEAR     79  30  16 NW10      30.16R
CORTEZ, CO     CLEAR     79   5   6 N9        30.14R
COLORADO CITY    N/A     90  28  11 N7        30.07R
PAGE, AZ       CLEAR     94  28   9 NE3       29.96R
GRAND CANYON   PTCLDY    77  27  15 CALM      30.21R
KINGMAN, AZ    PTCLDY    99  29   8 NW8       29.91R HX  93
FLAGSTAFF, AZ  MOCLDY    78  27  15 SW5       30.24R

$$

REGIONAL REPORTS    NEVADA/IDAHO/WYOMING

CITY           SKY/WX    TMP DP  RH WIND       PRES   REMARKS
LAS VEGAS, NV  PTCLDY   109  14   3 VRB3      29.76S HX 100
ELY, NY        CLEAR     80  27  14 N13       30.20S
ELKO, NV       CLEAR     85  32  15 N9        30.16R
POCATELLO, ID  CLEAR     73  47  39 E3        30.18S
BURLEY, ID     CLEAR     73  43  33 SW6       30.15R
FORT BRIDGER,    N/A     69  30  23 N6        30.35S
EVANSTON, WY   CLEAR     66  36  32 NW6       30.34R
ROCK SPRINGS,  CLEAR     70  23  17 N5        30.31R
KEMMERER, WY     N/A     63  34  34 NW8       30.36S

$$




USA.gov is the U.S. government's official web portal to all federal, state and local government web resources and services.